User: anonymous   Login
Location: Rife
(54.1814°N, 111.0275°W)
Time: 19:23:47
(UTC+00:00)
Language:

Tiangong - Orbit

View from above orbital plane
View from above orbital plane
View from above satellite
View from above satellite

Ground track
Ground track

The orbit data is extracted from the following two-line orbital elements,

1 48274U 21035A   22016.58416661  .00021328  00000-0  25154-3 0  9990
2 48274  41.4697  62.6153 0002410  84.7658  52.4350 15.60841727 41067
Epoch (UTC): 16 January 2022 14:01:11
Eccentricity: 0.0002410
inclination: 41.4697°
perigee height: 383 km
apogee height: 387 km
right ascension of ascending node: 62.6153°
argument of perigee: 84.7658°
revolutions per day: 15.60841727
mean anomaly at epoch: 52.4350°
orbit number at epoch: 4106

The dashed part of the orbit path shows where the satellite is in the earth's shadow,  

DLR